Weather History for Wittering, United Kingdom

Change the Weather History Date:

Friday, January 25, 2013

  Actual Average Record
Temperature  
Mean Temperature 28 °F -  
Max Temperature 33 °F 44 °F 53 °F (1999)
Min Temperature 23 °F 34 °F 23 °F (2013)
Degree Days  
Heating Degree Days 37    
Moisture  
Dew Point 27 °F    
Average Humidity 88    
Maximum Humidity 100    
Minimum Humidity 70    
Precipitation  
Precipitation 0.02 in - - ()
Sea Level Pressure  
Sea Level Pressure 29.88 in    
Wind  
Wind Speed 8 mph ()    
Max Wind Speed 17 mph    
Max Gust Speed -    
Visibility 5.2 miles    
Events Snow    
Averages and records for this station are not official NWS values.
T = Trace of Precipitation, MM = Missing Value Source: Averaged Metar Reports

Daily Weather History Graph

Daily Weather History Graph

Search for Another Location

Airport:

Trip Planner

Search our weather history database for the weather conditions in past years. The results will help you decide how hot, cold, wet, or windy it might be!

Date:

Astronomy

Jan. 25, 2013 Rise Set
Actual Time 7:54 AM GMT 4:34 PM GMT
Civil Twilight 7:15 AM GMT 5:13 PM GMT
Nautical Twilight 6:33 AM GMT 5:55 PM GMT
Astronomical Twilight 5:53 AM GMT 6:35 PM GMT
Moon 3:16 PM GMT (1/25) 6:26 AM GMT (1/25)
Length of Visible Light 9h 57m
Length of Day
8h 40m
Waxing Gibbous, 97% of the Moon is Illuminated
Jan 25
Waxing Gibbous
Jan 27
Full
Feb 3
Last Quarter
Feb 10
New
Feb 17
First Quarter

Hourly Weather History & Observations

Time (GMT) Temp. Windchill Dew Point Humidity Pressure Visibility Wind Dir Wind Speed Gust Speed Precip Events Conditions
12:50 AM 30.2 °F - 28.4 °F 93% 30.09 in 6.2 mi South 2.3 mph - N/A   Overcast
1:50 AM 30.2 °F 26.7 °F 26.6 °F 86% 30.09 in 4.3 mi SE 3.5 mph - N/A   Haze
2:50 AM 29 °F - 27 °F 88% 30.12 in 4 mi SSW 2.3 mph - -   Light Haze
2:50 AM 28.4 °F - 26.6 °F 93% 30.09 in 3.7 mi SSW 2.3 mph - N/A   Haze
3:50 AM 26.6 °F 21.2 °F 24.8 °F 93% 30.06 in 3.7 mi SSW 4.6 mph - N/A   Haze
4:50 AM 23.0 °F 15.8 °F 21.2 °F 93% 30.06 in - SSW 5.8 mph - N/A   Haze
5:50 AM 23 °F - 22 °F 93% 30.08 in 4 mi SSW 6.9 mph - -   Light Haze
5:50 AM 23.0 °F 14.7 °F 21.2 °F 93% 30.04 in 4.3 mi SSW 6.9 mph - N/A   Mist
6:50 AM 24.8 °F 16.1 °F 23.0 °F 93% 30.04 in 5.6 mi SSW 8.1 mph - N/A   Haze
7:50 AM 24.8 °F - 23.0 °F 93% 30.04 in 5.0 mi SSE 1.2 mph - N/A   Haze
8:50 AM 29 °F - 25 °F 77% 30.04 in 11 mi South 10.4 mph - -   Overcast
8:50 AM 28.4 °F 19.1 °F 24.8 °F 86% 30.01 in 6.2 mi South 10.4 mph - N/A   Overcast
9:50 AM 30.2 °F 20.8 °F 26.6 °F 86% 30.01 in 6.2 mi SSE 11.5 mph - N/A   Overcast
10:50 AM 32.0 °F 23.0 °F 26.6 °F 80% 29.98 in 6.2 mi South 11.5 mph - N/A   Overcast
11:50 AM 33 °F - 27 °F 70% 29.98 in 12 mi South 13.8 mph - -   Overcast
11:50 AM 32.0 °F 22.1 °F 26.6 °F 80% 29.95 in 6.2 mi South 13.8 mph - N/A   Overcast
12:50 PM 33.8 °F 23.9 °F 28.4 °F 81% 29.92 in 6.2 mi South 15.0 mph - N/A   Overcast
1:50 PM 32.0 °F 22.5 °F 28.4 °F 87% 29.89 in 6.2 mi South 12.7 mph - N/A   Overcast
2:50 PM 33 °F - 29 °F 78% 29.87 in 6 mi SSE 15.0 mph - -   Partly Cloudy
2:50 PM 32.0 °F 21.6 °F 28.4 °F 87% 29.83 in 5.6 mi SSE 15.0 mph - N/A   Mostly Cloudy
3:50 PM 32.0 °F 20.8 °F 28.4 °F 87% 29.80 in 5.6 mi SSE 17.3 mph - N/A   Haze
4:50 PM 32.0 °F 21.2 °F 28.4 °F 87% 29.77 in 5.6 mi SSE 16.1 mph - N/A   Haze
5:50 PM 32 °F - 28 °F 80% 29.75 in 6 mi SSE 11.5 mph - -   Light Haze
5:50 PM 32.0 °F 23.0 °F 28.4 °F 87% 29.71 in 5.6 mi SSE 11.5 mph - N/A   Haze
6:50 PM 30.2 °F 19.8 °F 28.4 °F 93% 29.71 in 5.0 mi SSE 13.8 mph - N/A   Haze
7:50 PM 30.2 °F 19.8 °F 28.4 °F 93% 29.65 in 6.2 mi SSE 13.8 mph - N/A   Mostly Cloudy
8:50 PM 31 °F - 28 °F 83% 29.64 in 5 mi SSE 15.0 mph - -   Unknown Precipitation
8:50 PM 32.0 °F 21.6 °F 28.4 °F 87% 29.62 in 5.0 mi SSE 15.0 mph - N/A   Haze
9:50 PM 32.0 °F 23.0 °F 30.2 °F 93% 29.56 in 1.1 mi SSE 11.5 mph - N/A Snow Light Snow
10:50 PM 32.0 °F 22.1 °F 32.0 °F 100% 29.53 in 1.5 mi SSE 13.8 mph - N/A Snow Light Snow
11:50 PM 33 °F - 32 °F 95% 29.55 in 1 mi SSE 13.8 mph - - Snow Snow
11:50 PM 33.8 °F 24.3 °F 32.0 °F 93% 29.53 in 1.0 mi SSE 13.8 mph - N/A Snow Snow